Saint Charles, IL

2:15 AM CST on February 24, 2017 (GMT -0600)
Du Page

Weather History for KDPA - November, 2011

Change the Weather History Date:

Saturday, November 12, 2011

  Actual Average Record
Temperature  
Mean Temperature 44 °F 42 °F  
Max Temperature 57 °F 51 °F 66 °F (2007)
Min Temperature 30 °F 33 °F 14 °F (1996)
Degree Days  
Heating Degree Days 22 23  
Month to date heating degree days 245  
Since 1 July heating degree days 756  
Cooling Degree Days 0 0  
Month to date cooling degree days 0  
Year to date cooling degree days 814  
Moisture  
Dew Point 35 °F    
Average Humidity 67    
Maximum Humidity 88    
Minimum Humidity 45    
Precipitation  
Precipitation 0.00 in 0.11 in 0.28 in (2005)
Month to date precipitation 1.27  
Year to date precipitation 33.38  
Sea Level Pressure  
Sea Level Pressure 29.72 in    
Wind  
Wind Speed 10 mph (SSE)    
Max Wind Speed 22 mph    
Max Gust Speed 31 mph    
Visibility 10 miles    
Events      
T = Trace of Precipitation, MM = Missing Value Source: NWS Daily Summary

Daily Weather History Graph

Daily Weather History Graph

Search for Another Location

Airport or City:

Trip Planner

Search our weather history database for the weather conditions in past years. The results will help you decide how hot, cold, wet, or windy it might be!

Date:

Astronomy

Nov. 12, 2011 Rise Set
Actual Time 6:38 AM CST 4:35 PM CST
Civil Twilight 6:08 AM CST 5:04 PM CST
Nautical Twilight 5:35 AM CST 5:38 PM CST
Astronomical Twilight 5:02 AM CST 6:11 PM CST
Moon 5:49 PM CST (11/12) 8:22 AM CST (11/12)
Length of Visible Light 10h 55m
Length of Day
9h 56m
Full, 97% of the Moon is Illuminated
Nov 12
Full
Nov 18
Last Quarter
Nov 25
New
Dec 2
First Quarter
Dec 10
Full

Hourly Weather History & Observations

Time (CST) Temp. Windchill Dew Point Humidity Pressure Visibility Wind Dir Wind Speed Gust Speed Precip Events Conditions
12:52 AM 30.9 °F 26.2 °F 27.0 °F 85% 29.77 in 10.0 mi SSE 4.6 mph - N/A   Clear
1:52 AM 30.9 °F 26.2 °F 27.0 °F 85% 29.76 in 10.0 mi SSE 4.6 mph - N/A   Clear
2:52 AM 32.0 °F 27.5 °F 28.0 °F 85% 29.75 in 10.0 mi SSE 4.6 mph - N/A   Clear
3:52 AM 32.0 °F 28.7 °F 28.0 °F 85% 29.77 in 10.0 mi SSE 3.5 mph - N/A   Clear
4:52 AM 32.0 °F 26.4 °F 28.0 °F 85% 29.79 in 9.0 mi SSE 5.8 mph - N/A   Clear
5:52 AM 30.0 °F 25.2 °F 27.0 °F 88% 29.79 in 8.0 mi SSE 4.6 mph - N/A   Clear
6:52 AM 30.9 °F 25.2 °F 27.0 °F 85% 29.80 in 8.0 mi SSE 5.8 mph - N/A   Clear
7:52 AM 37.0 °F 31.0 °F 32.0 °F 82% 29.81 in 10.0 mi SSE 8.1 mph - N/A   Clear
8:52 AM 44.1 °F 39.0 °F 35.1 °F 71% 29.81 in 10.0 mi South 9.2 mph - N/A   Clear
10:52 AM 52.0 °F - 37.0 °F 57% 29.81 in 10.0 mi South 15.0 mph 19.6 mph N/A   Clear
11:52 AM 55.9 °F - 36.0 °F 47% 29.78 in 10.0 mi South 15.0 mph - N/A   Clear
12:52 PM 57.0 °F - 37.0 °F 47% 29.76 in 10.0 mi South 15.0 mph - N/A   Clear
1:52 PM 57.9 °F - 37.0 °F 46% 29.73 in 10.0 mi South 17.3 mph 23.0 mph N/A   Clear
2:52 PM 57.0 °F - 36.0 °F 45% 29.70 in 10.0 mi SSE 15.0 mph - N/A   Clear
3:52 PM 55.0 °F - 37.0 °F 51% 29.70 in 10.0 mi South 18.4 mph 25.3 mph N/A   Clear
4:52 PM 54.0 °F - 37.0 °F 53% 29.68 in 10.0 mi SSE 17.3 mph 26.5 mph N/A   Clear
5:52 PM 54.0 °F - 37.0 °F 53% 29.67 in 10.0 mi SSE 20.7 mph 28.8 mph N/A   Clear
6:52 PM 53.1 °F - 37.0 °F 55% 29.66 in 10.0 mi South 21.9 mph 29.9 mph N/A   Clear
7:52 PM 52.0 °F - 37.9 °F 59% 29.65 in 10.0 mi South 18.4 mph 27.6 mph N/A   Clear
8:52 PM 52.0 °F - 39.9 °F 63% 29.63 in 10.0 mi South 16.1 mph 28.8 mph N/A   Partly Cloudy
9:52 PM 52.0 °F - 43.0 °F 71% 29.61 in 10.0 mi South 20.7 mph 28.8 mph N/A   Clear
10:52 PM 52.0 °F - 45.0 °F 77% 29.58 in 10.0 mi South 15.0 mph 25.3 mph N/A   Mostly Cloudy
11:52 PM 54.0 °F - 46.0 °F 75% 29.55 in 10.0 mi South 19.6 mph 31.1 mph N/A   Overcast